Location: Ferchesar
(52.6477°N, 12.4298°E)
Time: 16:55:57
(UTC+01:00)

Tiros 1 - Pass Details

Date: 03 December 2021
Orbit: 629 x 664 km, 48.4° (Epoch: 22 January)

Event Time Altitude Azimuth Distance (km) Brightness Sun altitude
Rises 01:44:24 0° 273° (W) 2,969 - -53.5°
Reaches altitude 10° 01:48:27 10° 239° (WSW) 2,062 - -53.1°
Maximum altitude 01:49:51 11° 222° (SW) 1,982 - -52.9°
Drops below altitude 10° 01:51:16 10° 205° (SSW) 2,064 - -52.8°
Sets 01:55:20 0° 171° (S) 2,977 - -52.3°
